• In Kazakhstan
  • List of Countries
  • For 7 days
  • Water Temperature
  • Satellite Maps
  • Weather Map
  • News
  • Weather Widgets
  • user-avatar
    Login

    Hourly Weather Quito

    Today, 20 March, Wednesday

    Time Temperature Precipitation Wind Pressure Humidity
    00:00 +18°C° 0 mm 1 mps 621 mmHg 72%
    01:00 +20°C° 0 mm 1 mps 622 mmHg 67%
    02:00 +20°C° 0 mm 1 mps 622 mmHg 68%
    03:00 +20°C° 0 mm 1 mps 622 mmHg 69%
    04:00 +20°C° 0 mm 1 mps 622 mmHg 70%
    05:00 +20°C° 0 mm 1 mps 622 mmHg 72%
    06:00 +20°C° 0 mm 1 mps 622 mmHg 75%
    07:00 +20°C° 0 mm 1 mps 623 mmHg 75%
    08:00 +22°C° 0.6 mm 1 mps 623 mmHg 72%
    09:00 +23°C° 0.6 mm 1 mps 624 mmHg 69%
    10:00 +25°C° 0.6 mm 1 mps 624 mmHg 67%
    11:00 +26°C° 1.1 mm 1 mps 624 mmHg 62%
    12:00 +27°C° 1.1 mm 1 mps 624 mmHg 58%
    13:00 +28°C° 1.1 mm 1 mps 624 mmHg 53%
    14:00 +27°C° 0 mm 1 mps 623 mmHg 59%
    15:00 +25°C° 0 mm 1 mps 622 mmHg 66%
    16:00 +24°C° 0 mm 1 mps 621 mmHg 72%
    17:00 +21°C° 2.7 mm 2 mps 621 mmHg 78%
    18:00 +20°C° 2.7 mm 3 mps 621 mmHg 84%
    19:00 +19°C° 2.7 mm 4 mps 621 mmHg 90%
    20:00 +18°C° 1.3 mm 3 mps 621 mmHg 90%
    21:00 +18°C° 1.3 mm 3 mps 622 mmHg 90%
    22:00 +18°C° 1.3 mm 2 mps 622 mmHg 90%
    23:00 +17°C° 0.7 mm 2 mps 622 mmHg 91%

    Tomorrow, 21 March, Thursday

    Time Temperature Precipitation Wind Pressure Humidity
    00:00 +18°C° 0.7 mm 1 mps 622 mmHg 92%
    01:00 +18°C° 0.7 mm 1 mps 622 mmHg 93%
    02:00 +16°C° 0 mm 1 mps 622 mmHg 93%
    03:00 +16°C° 0 mm 1 mps 621 mmHg 93%
    04:00 +16°C° 0 mm 1 mps 621 mmHg 92%
    05:00 +18°C° 0 mm 1 mps 622 mmHg 91%
    06:00 +18°C° 0 mm 1 mps 622 mmHg 89%
    07:00 +19°C° 0 mm 1 mps 623 mmHg 88%
    08:00 +21°C° 0.5 mm 1 mps 623 mmHg 82%
    09:00 +23°C° 0.5 mm 1 mps 624 mmHg 75%
    10:00 +25°C° 0.5 mm 1 mps 625 mmHg 69%
    11:00 +26°C° 0.4 mm 1 mps 625 mmHg 63%
    12:00 +27°C° 0.4 mm 2 mps 624 mmHg 57%
    13:00 +27°C° 0.4 mm 3 mps 624 mmHg 50%
    14:00 +26°C° 0.8 mm 3 mps 623 mmHg 58%
    15:00 +25°C° 0.8 mm 3 mps 623 mmHg 66%
    16:00 +24°C° 0.8 mm 3 mps 622 mmHg 74%
    17:00 +21°C° 0.4 mm 3 mps 622 mmHg 80%
    18:00 +20°C° 0.4 mm 2 mps 622 mmHg 85%
    19:00 +18°C° 0.4 mm 2 mps 622 mmHg 90%
    20:00 +17°C° 0.3 mm 2 mps 622 mmHg 90%
    21:00 +18°C° 0.3 mm 1 mps 622 mmHg 90%
    22:00 +18°C° 0.3 mm 1 mps 622 mmHg 90%
    23:00 +16°C° 0.3 mm 1 mps 622 mmHg 91%

    Day after tomorrow, 22 March, Friday

    Time Temperature Precipitation Wind Pressure Humidity
    00:00 +16°C° 0.3 mm 1 mps 622 mmHg 93%
    01:00 +16°C° 0.3 mm 1 mps 622 mmHg 95%
    02:00 +16°C° 0 mm 1 mps 622 mmHg 92%
    03:00 +16°C° 0 mm 1 mps 621 mmHg 90%
    04:00 +16°C° 0 mm 1 mps 621 mmHg 88%
    05:00 +18°C° 0 mm 1 mps 621 mmHg 87%
    06:00 +17°C° 0 mm 0 mps 622 mmHg 85%
    07:00 +17°C° 0 mm 0 mps 622 mmHg 84%
    08:00 +20°C° 0 mm 0 mps 623 mmHg 74%
    09:00 +25°C° 0 mm 1 mps 625 mmHg 64%
    10:00 +27°C° 0 mm 1 mps 626 mmHg 53%
    11:00 +28°C° 0 mm 2 mps 625 mmHg 50%
    12:00 +28°C° 0 mm 3 mps 625 mmHg 47%
    13:00 +29°C° 0 mm 4 mps 624 mmHg 43%
    14:00 +28°C° 0 mm 4 mps 624 mmHg 48%
    15:00 +28°C° 0 mm 3 mps 623 mmHg 52%
    16:00 +27°C° 0 mm 2 mps 623 mmHg 56%
    17:00 +25°C° 0.1 mm 2 mps 623 mmHg 64%
    18:00 +23°C° 0.1 mm 1 mps 622 mmHg 72%
    19:00 +21°C° 0.1 mm 1 mps 622 mmHg 80%
    20:00 +20°C° 0.6 mm 1 mps 622 mmHg 83%
    21:00 +18°C° 0.6 mm 2 mps 622 mmHg 86%
    22:00 +17°C° 0.6 mm 2 mps 623 mmHg 89%
    23:00 +17°C° 0.5 mm 2 mps 622 mmHg 91%

    23 March, Saturday

    Time Temperature Precipitation Wind Pressure Humidity
    00:00 +17°C° 0.5 mm 2 mps 622 mmHg 93%
    01:00 +16°C° 0.5 mm 2 mps 622 mmHg 94%
    02:00 +16°C° 0 mm 2 mps 621 mmHg 93%
    03:00 +16°C° 0 mm 1 mps 621 mmHg 91%
    04:00 +16°C° 0 mm 1 mps 621 mmHg 89%
    05:00 +18°C° 0 mm 1 mps 621 mmHg 87%
    06:00 +17°C° 0 mm 0 mps 622 mmHg 85%
    07:00 +17°C° 0 mm 0 mps 623 mmHg 83%
    08:00 +22°C° 0 mm 1 mps 623 mmHg 75%
    09:00 +24°C° 0 mm 1 mps 624 mmHg 66%
    10:00 +26°C° 0 mm 1 mps 625 mmHg 58%
    11:00 +27°C° 0 mm 2 mps 624 mmHg 54%
    12:00 +28°C° 0 mm 3 mps 624 mmHg 51%
    13:00 +28°C° 0 mm 4 mps 623 mmHg 47%
    14:00 +28°C° 0 mm 3 mps 623 mmHg 52%
    15:00 +27°C° 0 mm 2 mps 623 mmHg 56%
    16:00 +27°C° 0 mm 2 mps 622 mmHg 61%
    17:00 +25°C° 0 mm 1 mps 622 mmHg 65%
    18:00 +23°C° 0 mm 1 mps 622 mmHg 69%
    19:00 +22°C° 0 mm 1 mps 622 mmHg 73%
    20:00 +21°C° 0 mm 1 mps 622 mmHg 75%
    21:00 +20°C° 0 mm 1 mps 622 mmHg 76%
    22:00 +17°C° 0 mm 0 mps 622 mmHg 77%
    23:00 +19°C° 0 mm 1 mps 621 mmHg 77%

    24 March, Sunday

    Time Temperature Precipitation Wind Pressure Humidity
    00:00 +19°C° 0 mm 1 mps 621 mmHg 77%
    01:00 +19°C° 0 mm 1 mps 621 mmHg 77%
    02:00 +18°C° 0 mm 1 mps 621 mmHg 78%
    03:00 +18°C° 0 mm 1 mps 621 mmHg 79%
    04:00 +18°C° 0 mm 1 mps 620 mmHg 80%
    05:00 +18°C° 0 mm 1 mps 621 mmHg 80%
    06:00 +19°C° 0 mm 1 mps 622 mmHg 80%
    07:00 +17°C° 0 mm 0 mps 622 mmHg 81%
    08:00 +21°C° 0 mm 1 mps 623 mmHg 73%
    09:00 +23°C° 0 mm 2 mps 623 mmHg 66%
    10:00 +25°C° 0 mm 3 mps 624 mmHg 58%
    11:00 +26°C° 0 mm 3 mps 624 mmHg 56%
    12:00 +27°C° 0 mm 3 mps 623 mmHg 53%
    13:00 +28°C° 0 mm 4 mps 623 mmHg 50%
    14:00 +27°C° 0 mm 3 mps 622 mmHg 53%
    15:00 +27°C° 0 mm 2 mps 622 mmHg 55%
    16:00 +27°C° 0 mm 1 mps 622 mmHg 57%
    17:00 +24°C° 1.3 mm 1 mps 622 mmHg 67%
    18:00 +22°C° 1.3 mm 1 mps 622 mmHg 76%
    19:00 +19°C° 1.3 mm 2 mps 621 mmHg 86%
    20:00 +18°C° 1.3 mm 2 mps 622 mmHg 88%
    21:00 +19°C° 1.3 mm 1 mps 622 mmHg 89%
    22:00 +18°C° 1.3 mm 1 mps 622 mmHg 91%
    23:00 +18°C° 0.1 mm 1 mps 622 mmHg 92%

    25 March, Monday

    Time Temperature Precipitation Wind Pressure Humidity
    00:00 +17°C° 0.1 mm 2 mps 621 mmHg 93%
    01:00 +17°C° 0.1 mm 2 mps 621 mmHg 94%
    02:00 +16°C° 0.4 mm 2 mps 621 mmHg 94%
    03:00 +16°C° 0.4 mm 2 mps 621 mmHg 94%
    04:00 +16°C° 0.4 mm 2 mps 620 mmHg 95%
    05:00 +16°C° 0.1 mm 1 mps 621 mmHg 94%
    06:00 +18°C° 0.1 mm 1 mps 621 mmHg 93%
    07:00 +18°C° 0.1 mm 1 mps 622 mmHg 92%
    08:00 +21°C° 0.5 mm 1 mps 623 mmHg 83%
    09:00 +23°C° 0.5 mm 1 mps 624 mmHg 75%
    10:00 +24°C° 0.5 mm 0 mps 624 mmHg 66%
    11:00 +26°C° 0.4 mm 1 mps 624 mmHg 63%
    12:00 +26°C° 0.4 mm 1 mps 623 mmHg 60%
    13:00 +27°C° 0.4 mm 2 mps 623 mmHg 57%
    14:00 +26°C° 0.6 mm 1 mps 623 mmHg 59%
    15:00 +26°C° 0.6 mm 1 mps 622 mmHg 60%
    16:00 +26°C° 0.6 mm 1 mps 622 mmHg 62%
    17:00 +23°C° 1.5 mm 1 mps 622 mmHg 71%
    18:00 +21°C° 1.5 mm 1 mps 621 mmHg 79%
    19:00 +19°C° 1.5 mm 1 mps 621 mmHg 88%
    20:00 +19°C° 0.6 mm 1 mps 621 mmHg 89%
    21:00 +18°C° 0.6 mm 1 mps 622 mmHg 89%
    22:00 +18°C° 0.6 mm 1 mps 622 mmHg 90%
    23:00 +18°C° 0 mm 1 mps 621 mmHg 91%
    Show more